GW6902 Weather Reports


time (UTC)temp
C
wind
direction
speed
KPH
gust
KPH
rain 1hr
cm
rain 24hr
cm
rain mn
cm
humidity
%
barometer
mb
20260503230826 26 85 3.2 3.2 0.00 0.00 0.00 28 1013.5
20260503230323 26 223 3.2 4.8 0.00 0.00 0.00 29 1013.3
20260503225820 26 126 1.6 3.2 0.00 0.00 0.00 31 1013.6
20260503225316 26 254 3.2 4.8 0.00 0.00 0.00 29 1013.7
20260503224813 26 247 1.6 1.6 0.00 0.00 0.00 32 1013.8
20260503224310 26 261 0.0 1.6 0.00 0.00 0.00 31 1013.6
20260503223808 25 201 0.0 3.2 0.00 0.00 0.00 32 1013.9
20260503223305 26 264 1.6 4.8 0.00 0.00 0.00 28 1013.9
20260503222801 25 86 0.0 1.6 0.00 0.00 0.00 31 1014.1
20260503222259 25 107 1.6 3.2 0.00 0.00 0.00 35 1014.2
20260503221757 25 153 1.6 4.8 0.00 0.00 0.00 32 1014.0
20260503221255 25 91 0.0 1.6 0.00 0.00 0.00 33 1014.2
20260503220751 25 99 3.2 3.2 0.00 0.00 0.00 31 1014.3
20260503220248 25 100 1.6 1.6 0.00 0.00 0.00 31 1014.3
20260503215745 25 121 1.6 4.8 0.00 0.00 0.00 33 1014.6
20260503215242 25 170 0.0 1.6 0.00 0.00 0.00 34 1014.6
20260503214740 25 196 1.6 4.8 0.00 0.00 0.00 35 1014.5
20260503214236 25 101 0.0 1.6 0.00 0.00 0.00 34 1014.6
20260503213735 25 357 1.6 3.2 0.00 0.00 0.00 31 1014.7
20260503213232 25 162 0.0 1.6 0.00 0.00 0.00 33 1014.5
20260503212728 25 91 1.6 1.6 0.00 0.00 0.00 31 1014.7
20260503212226 25 230 0.0 3.2 0.00 0.00 0.00 32 1014.7
20260503211724 26 31 0.0 1.6 0.00 0.00 0.00 35 1014.7
20260503211219 26 266 1.6 3.2 0.00 0.00 0.00 31 1014.7
20260503210715 26 182 1.6 3.2 0.00 0.00 0.00 33 1014.7
20260503210213 26 176 1.6 3.2 0.00 0.00 0.00 34 1014.6
20260503205708 26 184 1.6 1.6 0.00 0.00 0.00 34 1014.8
20260503205204 26 176 0.0 3.2 0.00 0.00 0.00 33 1014.8
20260503204701 26 259 1.6 3.2 0.00 0.00 0.00 31 1014.7
20260503204159 26 238 0.0 1.6 0.00 0.00 0.00 33 1014.7
20260503203655 27 68 0.0 1.6 0.00 0.00 0.00 33 1014.8
20260503203153 26 22 1.6 1.6 0.00 0.00 0.00 32 1014.8
20260503202650 26 90 0.0 3.2 0.00 0.00 0.00 35 1014.7
20260503202148 26 37 1.6 4.8 0.00 0.00 0.00 33 1014.8
20260503201646 25 56 1.6 3.2 0.00 0.00 0.00 32 1014.7
20260503201143 25 37 1.6 3.2 0.00 0.00 0.00 33 1014.8
20260503200639 26 103 1.6 1.6 0.00 0.00 0.00 33 1014.7
20260503200135 25 215 1.6 3.2 0.00 0.00 0.00 34 1015.0
20260503195633 25 194 1.6 3.2 0.00 0.00 0.00 35 1015.0
20260503195129 25 101 1.6 3.2 0.00 0.00 0.00 34 1015.3
20260503194627 25 87 0.0 4.8 0.00 0.00 0.00 38 1015.3
20260503194121 25 292 0.0 1.6 0.00 0.00 0.00 36 1015.3
20260503193619 25 191 1.6 3.2 0.00 0.00 0.00 32 1015.3
20260503193114 26 197 1.6 4.8 0.00 0.00 0.00 35 1015.4
20260503192610 25 116 1.6 1.6 0.00 0.00 0.00 35 1015.4
20260503192106 24 164 1.6 3.2 0.00 0.00 0.00 34 1015.5
20260503191603 25 50 1.6 1.6 0.00 0.00 0.00 34 1015.5
20260503191100 24 163 0.0 3.2 0.00 0.00 0.00 38 1015.4
20260503190556 24 269 1.6 6.4 0.00 0.00 0.00 37 1015.5
20260503190054 24 223 1.6 3.2 0.00 0.00 0.00 37 1015.8
20260503185550 24 222 1.6 4.8 0.00 0.00 0.00 35 1015.7
20260503185050 23 128 1.6 1.6 0.00 0.00 0.00 39 1015.7
20260503184546 23 78 3.2 3.2 0.00 0.00 0.00 36 1015.9
20260503184043 24 104 1.6 1.6 0.00 0.00 0.00 37 1015.8
20260503183539 23 79 0.0 1.6 0.00 0.00 0.00 38 1015.9
20260503183037 24 144 1.6 1.6 0.00 0.00 0.00 36 1015.9
20260503182535 23 96 1.6 3.2 0.00 0.00 0.00 38 1016.0
20260503182033 23 76 1.6 4.8 0.00 0.00 0.00 38 1015.9
20260503181530 23 80 0.0 6.4 0.00 0.00 0.00 37 1016.0
20260503181026 23 110 1.6 4.8 0.00 0.00 0.00 39 1016.1
20260503180523 23 46 0.0 1.6 0.00 0.00 0.00 39 1016.0
20260503180020 23 109 1.6 1.6 0.00 0.00 0.00 39 1016.0
20260503175518 22 146 0.0 1.6 0.00 0.00 0.00 40 1016.3
20260503175015 22 325 1.6 3.2 0.00 0.00 0.00 36 1016.3
20260503174512 22 278 3.2 4.8 0.00 0.00 0.00 37 1016.1
20260503174008 23 223 1.6 1.6 0.00 0.00 0.00 37 1016.5
20260503173503 22 211 0.0 1.6 0.00 0.00 0.00 40 1016.4
20260503173000 22 291 1.6 3.2 0.00 0.00 0.00 39 1016.2
20260503172458 22 65 3.2 3.2 0.00 0.00 0.00 40 1016.6
20260503171954 22 73 0.0 1.6 0.00 0.00 0.00 40 1016.4
20260503171451 22 89 1.6 1.6 0.00 0.00 0.00 40 1016.3
20260503170948 22 222 0.0 1.6 0.00 0.00 0.00 40 1016.3
20260503170444 22 89 0.0 1.6 0.00 0.00 0.00 41 1016.4
20260503150837 19 155 1.6 1.6 0.00 0.00 0.00 47 1017.3
20260503150333 18 151 3.2 3.2 0.00 0.00 0.00 47 1017.3
20260503140257 11 192 0.0 0.0 0.00 0.00 0.00 68 1017.0
20260503131227 11 192 0.0 0.0 0.00 0.00 0.00 69 1016.5
20260503130724 11 192 0.0 0.0 0.00 0.00 0.00 68 1016.5
20260503130221 11 192 0.0 0.0 0.00 0.00 0.00 67 1016.6
20260503120147 13 193 0.0 1.6 0.00 0.00 0.00 55 1017.0
20260503110615 13 185 0.0 1.6 0.00 0.00 0.00 55 1016.6
20260503110112 13 184 0.0 0.0 0.00 0.00 0.00 55 1016.6
20260503090502 16 194 0.0 1.6 0.00 0.00 0.00 46 1016.4
20260503081428 16 203 0.0 1.6 0.00 0.00 0.00 47 1016.8
20260503080925 16 203 3.2 4.8 0.00 0.00 0.00 46 1016.8
20260503080422 16 188 1.6 3.2 0.00 0.00 0.00 46 1016.5
20260503072858 16 206 3.2 3.2 0.00 0.00 0.00 49 1016.6
20260503072355 16 194 0.0 3.2 0.00 0.00 0.00 50 1016.6
20260503071851 16 205 1.6 1.6 0.00 0.00 0.00 49 1016.6
20260503071349 16 203 0.0 3.2 0.00 0.00 0.00 48 1016.4
20260503070845 16 189 0.0 4.8 0.00 0.00 0.00 48 1016.5
20260503070343 17 189 3.2 3.2 0.00 0.00 0.00 46 1016.5
20260503060314 16 217 3.2 4.8 0.00 0.00 0.00 49 1016.5
20260503054801 16 222 0.0 3.2 0.00 0.00 0.00 52 1016.6
20260503054258 16 215 3.2 3.2 0.00 0.00 0.00 51 1016.6
20260503053755 16 197 1.6 3.2 0.00 0.00 0.00 51 1016.6
20260503053254 16 188 0.0 1.6 0.00 0.00 0.00 52 1016.6
20260503052750 16 202 4.8 4.8 0.00 0.00 0.00 52 1016.6
20260503052247 16 191 1.6 3.2 0.00 0.00 0.00 53 1016.6
20260503051742 15 211 0.0 4.8 0.00 0.00 0.00 54 1016.6
20260503051240 15 196 0.0 1.6 0.00 0.00 0.00 56 1016.5
20260503050736 15 195 0.0 3.2 0.00 0.00 0.00 58 1016.8
20260503050233 15 188 0.0 1.6 0.00 0.00 0.00 58 1016.6
20260503045730 16 177 0.0 0.0 0.00 0.00 0.00 57 1016.6
20260503045228 16 177 0.0 1.6 0.00 0.00 0.00 57 1016.5
20260503044724 16 196 0.0 1.6 0.00 0.00 0.00 56 1016.6
20260503044222 16 177 0.0 3.2 0.00 0.00 0.00 57 1016.4
20260503043718 15 199 3.2 3.2 0.00 0.00 0.00 60 1016.4
20260503043216 15 229 1.6 1.6 0.00 0.00 0.00 61 1016.6
20260503042711 15 248 0.0 3.2 0.00 0.00 0.00 60 1016.5
20260503042208 15 221 0.0 0.0 0.00 0.00 0.00 61 1016.4
20260503041704 15 221 0.0 0.0 0.00 0.00 0.00 60 1016.2
20260503041202 16 221 0.0 0.0 0.00 0.00 0.00 57 1016.3
20260503040659 16 221 1.6 1.6 0.00 0.00 0.00 60 1016.2
20260503040157 16 161 1.6 1.6 0.00 0.00 0.00 58 1016.1
20260503035653 16 156 1.6 1.6 0.00 0.00 0.00 57 1015.9
20260503035151 16 156 0.0 0.0 0.00 0.00 0.00 56 1016.1
20260503034648 17 134 1.6 1.6 0.00 0.00 0.00 54 1016.1
20260503034145 17 134 0.0 1.6 0.00 0.00 0.00 52 1015.9
20260503033642 17 76 0.0 0.0 0.00 0.00 0.00 50 1016.0
20260503033140 17 75 0.0 1.6 0.00 0.00 0.00 50 1015.8
20260503032638 17 75 0.0 1.6 0.00 0.00 0.00 50 1015.8
20260503032137 18 70 0.0 0.0 0.00 0.00 0.00 49 1015.7
20260503031633 18 70 0.0 1.6 0.00 0.00 0.00 48 1015.6
20260503031131 18 70 0.0 0.0 0.00 0.00 0.00 46 1015.7
20260503030627 18 70 0.0 0.0 0.00 0.00 0.00 45 1015.9
20260503030124 18 70 0.0 0.0 0.00 0.00 0.00 43 1015.7
20260503025620 19 70 0.0 0.0 0.00 0.00 0.00 42 1015.8
20260503025119 19 70 0.0 0.0 0.00 0.00 0.00 41 1015.7
20260503024615 20 70 0.0 0.0 0.00 0.00 0.00 39 1015.8
20260503024112 20 70 0.0 0.0 0.00 0.00 0.00 37 1015.6
20260503023609 20 69 0.0 0.0 0.00 0.00 0.00 36 1015.6
20260503023106 20 69 0.0 0.0 0.00 0.00 0.00 35 1015.7
20260503022601 20 69 0.0 0.0 0.00 0.00 0.00 35 1015.6
20260503022056 20 69 0.0 0.0 0.00 0.00 0.00 34 1015.9
20260503021554 21 69 0.0 0.0 0.00 0.00 0.00 34 1015.8
20260503021050 21 69 0.0 0.0 0.00 0.00 0.00 33 1015.9
20260503020547 21 69 0.0 0.0 0.00 0.00 0.00 32 1015.7
20260503020044 21 69 0.0 0.0 0.00 0.00 0.00 33 1015.8
20260503015541 21 69 0.0 0.0 0.00 0.00 0.00 31 1015.9
20260503015039 21 69 0.0 0.0 0.00 0.00 0.00 32 1015.9
20260503014534 21 69 0.0 0.0 0.00 0.00 0.00 31 1016.0
20260503014032 22 69 0.0 0.0 0.00 0.00 0.00 34 1016.0
20260503013529 22 69 0.0 1.6 0.00 0.00 0.00 34 1016.1
20260503013027 23 69 0.0 1.6 0.00 0.00 0.00 32 1015.9
20260503012524 23 69 0.0 0.0 0.00 0.00 0.00 33 1016.0
20260503012020 23 68 0.0 0.0 0.00 0.00 0.00 31 1016.0
20260503011517 23 68 0.0 0.0 0.00 0.00 0.00 36 1016.2
20260503011015 23 68 0.0 1.6 0.00 0.00 0.00 33 1016.3
20260503010510 23 69 0.0 0.0 0.00 0.00 0.00 34 1016.1
20260503010009 24 68 0.0 0.0 0.00 0.00 0.00 33 1016.2
20260503005505 24 68 0.0 0.0 0.00 0.00 0.00 34 1016.1
20260503005002 23 83 0.0 0.0 0.00 0.00 0.00 32 1016.0
20260503004458 23 84 0.0 1.6 0.00 0.00 0.00 33 1016.0
20260503003956 25 188 1.6 1.6 0.00 0.00 0.00 32 1016.0
20260503003453 25 189 0.0 3.2 0.00 0.00 0.00 37 1016.0
20260503002950 26 56 0.0 0.0 0.00 0.00 0.00 33 1016.0
20260503002447 26 49 0.0 1.6 0.00 0.00 0.00 34 1016.1
20260503001943 25 45 0.0 1.6 0.00 0.00 0.00 34 1016.1
20260503001440 25 44 0.0 0.0 0.00 0.00 0.00 32 1016.2
20260503000938 26 266 3.2 4.8 0.00 0.00 0.00 33 1016.1
20260503000434 26 238 3.2 4.8 0.00 0.00 0.00 30 1016.2
20260502235932 26 68 1.6 1.6 0.00 0.00 0.00 35 1016.3
20260502235428 26 76 0.0 1.6 0.00 0.00 0.00 31 1016.0
20260502234926 26 81 1.6 3.2 0.00 0.00 0.00 31 1016.3
20260502234422 25 93 1.6 3.2 0.00 0.00 0.00 31 1016.2
20260502233920 25 164 0.0 1.6 0.00 0.00 0.00 35 1016.4
20260502233415 25 154 0.0 1.6 0.00 0.00 0.00 33 1016.3
20260502232913 25 97 3.2 3.2 0.00 0.00 0.00 32 1016.5
20260502232408 24 103 0.0 1.6 0.00 0.00 0.00 33 1016.5
20260502231905 23 165 1.6 1.6 0.00 0.00 0.00 34 1016.6
20260502231403 23 172 3.2 3.2 0.00 0.00 0.00 35 1016.6